{"data":{"norad_id":60100,"intl_designator":"2024-117K","name":"STARLINK-31996","alt_names":[],"object_type":"PAYLOAD","status":"ACTIVE","operator":null,"country":"US","launch_date":"2024-06-23","launch_site_code":"AFETR","launch_vehicle":null,"mission":null,"orbit_class":"UNKNOWN","rcs_meters":null,"size_class":null,"mass_kg":null,"dimensions":null,"purposes":["comms"],"wikipedia_slug":null,"has_3d_model":false,"image_url":null,"decayed_at":null,"tle_current":{"epoch":"2026-09-21T13:07:16.620960Z","epoch_age_seconds":86973,"freshness":"FRESH","line1":"1 60100U 24117K   26264.54672015  .00052704  00000+0  15731-2 0  9998","line2":"2 60100  53.1582 204.5094 0002971  66.5910 293.5404 15.34135716126915","mean_motion":15.34135716,"eccentricity":0.0002971,"inclination_deg":53.1582,"raan_deg":204.5094,"arg_perigee_deg":66.591,"mean_anomaly_deg":293.5404,"bstar":0.0015731,"rev_number":12691,"period_min":93.863925139202,"perigee_km":461.45621367057,"apogee_km":465.52150775701,"semimajor_km":6841.6258607138,"source":"CELESTRAK","updated_at":"2026-09-22T09:00:49.151435Z"}}}